Weather History for Karlovy Vary, Czech Republic

Change the Weather History Date:

Tuesday, February 12, 2013

  Actual Average (EDQM) Record (EDQM)
Temperature  
Mean Temperature 24 °F -  
Max Temperature 24 °F 35 °F 48 °F (2001)
Min Temperature 23 °F 27 °F -7 °F (2012)
Degree Days  
Heating Degree Days 42    
Moisture  
Dew Point 20 °F    
Average Humidity 89    
Maximum Humidity 100    
Minimum Humidity 80    
Precipitation  
Precipitation 0.00 in - - ()
Sea Level Pressure  
Sea Level Pressure 29.72 in    
Wind  
Wind Speed 7 mph ()    
Max Wind Speed 13 mph    
Max Gust Speed -    
Visibility 3.5 miles    
Events Snow    
Averages and records for this station are not official NWS values.
T = Trace of Precipitation, MM = Missing Value Source: Averaged Metar Reports

Daily Weather History Graph

Daily Weather History Graph

Search for Another Location

Airport:

Trip Planner

Search our weather history database for the weather conditions in past years. The results will help you decide how hot, cold, wet, or windy it might be!

Date:

Astronomy

Feb. 12, 2013 Rise Set
Actual Time 7:24 AM CET 5:21 PM CET
Civil Twilight 6:50 AM CET 5:55 PM CET
Nautical Twilight 6:12 AM CET 6:33 PM CET
Astronomical Twilight 5:35 AM CET 7:10 PM CET
Moon 7:53 AM CET (2/12) 8:26 PM CET (2/12)
Length of Visible Light 11h 04m
Length of Day
9h 56m
Waxing Crescent, 6% of the Moon is Illuminated
Feb 12
Waxing Crescent
Feb 17
First Quarter
Feb 25
Full
Mar 4
Last Quarter
Mar 11
New

Hourly Weather History & Observations

Time (CET) Temp. Windchill Dew Point Humidity Pressure Visibility Wind Dir Wind Speed Gust Speed Precip Events Conditions
12:00 AM 23.0 °F 11.1 °F 17.6 °F 80% 29.65 in 6.2 mi East 12.7 mph - N/A   Overcast
1:00 AM 23.0 °F 11.7 °F 17.6 °F 80% 29.65 in 6.2 mi East 11.5 mph - N/A   Overcast
2:00 AM 23.0 °F 13.1 °F 17.6 °F 80% 29.65 in 6.2 mi ENE 9.2 mph - N/A   Overcast
3:00 AM 23.0 °F 12.4 °F 19.4 °F 86% 29.62 in 6.2 mi ENE 10.4 mph - N/A   Mostly Cloudy
4:00 AM 23.0 °F 13.1 °F 19.4 °F 86% 29.62 in 5.0 mi ENE 9.2 mph - N/A   Overcast
5:00 AM 23.0 °F 13.1 °F 19.4 °F 86% 29.65 in 5.0 mi ENE 9.2 mph - N/A   Mostly Cloudy
6:00 AM 23.0 °F 13.9 °F 19.4 °F 86% 29.65 in 5.0 mi ENE 8.1 mph - N/A   Overcast
7:00 AM 23.0 °F 14.7 °F 19.4 °F 86% 29.65 in 4.3 mi ENE 6.9 mph - N/A   Overcast
7:30 AM 23.0 °F 13.1 °F 19.4 °F 86% 29.65 in 5.0 mi ENE 9.2 mph - N/A   Mostly Cloudy
8:00 AM 23.0 °F 13.1 °F 19.4 °F 86% 29.65 in 3.7 mi NE 9.2 mph - N/A Snow Light Snow Grains
8:30 AM 23.0 °F 13.1 °F 19.4 °F 86% 29.68 in 3.1 mi ENE 9.2 mph - N/A Snow Light Snow Grains
9:00 AM 23.0 °F 12.4 °F 19.4 °F 86% 29.68 in 3.1 mi ENE 10.4 mph - N/A Snow Light Snow Grains
9:30 AM 23.0 °F 13.1 °F 21.2 °F 93% 29.68 in 3.1 mi ENE 9.2 mph - N/A   Light Freezing Rain
10:00 AM 23.0 °F 13.9 °F 21.2 °F 93% 29.71 in 3.1 mi ENE 8.1 mph - N/A Snow Light Snow Grains
10:30 AM 23.0 °F 13.9 °F 19.4 °F 86% 29.68 in 3.7 mi NE 8.1 mph - N/A Snow Light Snow Grains
11:00 AM 23.0 °F 13.1 °F 19.4 °F 86% 29.71 in 5.0 mi ENE 9.2 mph - N/A Snow Light Snow Grains
11:30 AM 23.0 °F 11.7 °F 19.4 °F 86% 29.71 in 3.7 mi ENE 11.5 mph - N/A Snow Light Snow Grains
12:00 PM 23.0 °F 13.9 °F 21.2 °F 93% 29.71 in 3.7 mi ENE 8.1 mph - N/A Snow Light Snow Grains
12:30 PM 23.0 °F 14.7 °F 21.2 °F 93% 29.71 in 3.7 mi NE 6.9 mph - N/A Snow Light Snow Grains
1:00 PM 23.0 °F 14.7 °F 21.2 °F 93% 29.71 in 3.7 mi NE 6.9 mph - N/A Snow Light Snow Grains
1:30 PM 23.0 °F 13.9 °F 21.2 °F 93% 29.71 in 3.7 mi NE 8.1 mph - N/A Snow Light Snow Grains
2:00 PM 24.8 °F 14.6 °F 21.2 °F 86% 29.71 in 4.3 mi ENE 10.4 mph - N/A Snow Light Snow Grains
2:21 PM 24.8 °F 17.9 °F 21.2 °F 86% 29.71 in 2.5 mi NE 5.8 mph - N/A Snow Light Snow
2:30 PM 24.8 °F 16.9 °F 21.2 °F 86% 29.71 in 1.6 mi NE 6.9 mph - N/A Snow Light Snow
3:00 PM 24.8 °F 17.9 °F 21.2 °F 86% 29.71 in 1.9 mi NNE 5.8 mph - N/A Snow Light Snow
3:04 PM 24.8 °F 17.9 °F 21.2 °F 86% 29.71 in - NNE 5.8 mph - N/A Snow Light Snow
3:30 PM 24.8 °F 17.9 °F 21.2 °F 86% 29.71 in 1.9 mi North 5.8 mph - N/A Snow Light Snow
4:00 PM 24.8 °F 19.1 °F 21.2 °F 86% 29.74 in 1.9 mi NNW 4.6 mph - N/A Snow Light Snow
4:30 PM 24.8 °F 20.5 °F 21.2 °F 86% 29.74 in 1.9 mi North 3.5 mph - N/A Snow Light Snow
4:38 PM 24.8 °F 19.1 °F 21.2 °F 86% 29.74 in 1.1 mi NNE 4.6 mph - N/A Snow Light Snow
5:00 PM 24.8 °F 20.5 °F 21.2 °F 86% 29.74 in 1.2 mi NNE 3.5 mph - N/A Snow Light Snow
5:30 PM 23.0 °F 17.0 °F 21.2 °F 93% 29.77 in 1.2 mi NE 4.6 mph - N/A Snow Light Snow
6:00 PM 23.0 °F 17.0 °F 21.2 °F 93% 29.77 in 1.6 mi North 4.6 mph - N/A Snow Light Snow
6:30 PM 23.0 °F 18.4 °F 21.2 °F 93% 29.77 in - North 3.5 mph - N/A Snow Light Snow
6:53 PM 23.0 °F 18.4 °F 21.2 °F 93% 29.77 in - NNE 3.5 mph - N/A Snow Light Snow
7:00 PM 23.0 °F 18.4 °F 21.2 °F 93% 29.77 in 3.1 mi NNE 3.5 mph - N/A Snow Light Snow
7:30 PM 23.0 °F 18.4 °F 21.2 °F 93% 29.80 in 3.1 mi North 3.5 mph - N/A Snow Light Snow
8:00 PM 23.0 °F - 21.2 °F 93% 29.80 in 3.1 mi Variable 2.3 mph - N/A Snow Light Snow
8:30 PM 23.0 °F 17.0 °F 23.0 °F 100% 29.80 in 2.5 mi WNW 4.6 mph - N/A Snow Light Snow
9:00 PM 23.0 °F 15.8 °F 21.2 °F 93% 29.80 in 1.4 mi West 5.8 mph - N/A Snow Light Snow
10:00 PM 23.0 °F 18.4 °F 21.2 °F 93% 29.83 in 3.1 mi West 3.5 mph - N/A Snow Light Snow
11:00 PM 23.0 °F - 21.2 °F 93% 29.83 in 5.0 mi Variable 2.3 mph - N/A   Scattered Clouds